Miscellaneous Local Product
Issued by NWS North Platte, NE

Home | Current Version | Previous Version | Graphics & Text | Print | Product List | Glossary On
Versions: 1 2 3 4 5 6 7 8 9 10 11 12 13 14 15 16 17 18 19 20 21 22 23 24 25 26 27 28 29 30 31 32 33 34 35 36 37 38 39 40 41 42 43 44 45 46 47 48 49 50
000
AXUS43 KLBF 251710
MISLBF


WESTERN AND NORTH CENTRAL NEBRASKA HOURLY WEATHER ROUNDUP
NATIONAL WEATHER SERVICE NORTH PLATTE NE
1200 PM CDT SAT MAR 25 2017

NOTE: "FAIR" INDICATES FEW OR NO CLOUDS BELOW 12,000 FEET WITH NO
SIGNIFICANT WEATHER AND/OR OBSTRUCTIONS TO VISIBILITY.

NOTE: STATIONS NOT REPORTING VARIABLES SUCH AS SKY/WEATHER OR
PRESSURE ARE PROVIDED BY RAWS AND APRS NETWORKS AND ARE NOT UNDER
NATIONAL WEATHER SERVICE QUALITY CONTROL.

...OBSERVATIONS IN AND NEAR THE EASTERN PANHANDLE OF NEBRASKA...

CITY           SKY/WX    TMP DP  RH WIND       PRES   REMARKS
PINE RIDGE     SUNNY     60  31  33 S21       29.95F
CHADRON        MOSUNNY   61  32  33 SW12      29.93F
ALLIANCE       CLOUDY    58  29  33 S16       29.98F
SIDNEY         SUNNY     54  30  40 S12       30.02F
CRESCENT LAKE    N/A     56  29  35 S7          N/A
$$

...OBSERVATIONS IN NORTHERN NEBRASKA AND FAR SOUTHERN SOUTH DAKOTA...

CITY           SKY/WX    TMP DP  RH WIND       PRES   REMARKS
WINNER         FAIR      44  35  70 VRB7      30.04F
VALENTINE      SUNNY     47  28  47 CALM      30.03F
THEDFORD       SUNNY     51  30  45 E5        30.02F
AINSWORTH      MOSUNNY   37  37 100 CALM      30.03F
O`NEILL        FOG       35  35 100 N5        30.07S VSB 1/2 WCI  31
ORD            CLOUDY    37  35  92 NE12      30.04F FOG     WCI  29
BROKEN BOW     CLOUDY    39  37  92 N10       30.03F WCI  32
VALENTINE NWR    N/A     42  34  72 S6          N/A
HALSEY           N/A     39  35  84 W3          N/A
BUTTE            N/A     34  31  90 E7          N/A  WCI  28
CHAMBERS         N/A     38  36  94 N3          N/A
EWING            N/A     36  36 100 N6          N/A  WCI  31
$$

...OBSERVATIONS IN SOUTHWEST NEBRASKA AND FAR NORTHEAST COLORADO...

CITY           SKY/WX    TMP DP  RH WIND       PRES   REMARKS
WRAY           FAIR      52  28  40 CALM      30.06S
HOLYOKE        FAIR      54  37  54 CALM      30.05F
IMPERIAL       SUNNY     51  32  48 N6        30.05F
OGALLALA       SUNNY     52  30  43 CALM      30.05F
NORTH PLATTE   SUNNY     50  35  56 W5        30.03F
MCCOOK         SUNNY     52  39  61 N10       30.03F
LEXINGTON      CLOUDY    42  38  86 N8        30.04S
STAPLETON        N/A     47  36  65 CALM        N/A
GOTHENBURG       N/A     40  34  80 NW5         N/A
CALLAWAY         N/A     37  36  98 NW7         N/A  WCI  31
$$

...OBSERVATIONS IN CENTRAL LINCOLN COUNTY AREA...

CITY           SKY/WX    TMP DP  RH WIND       PRES   REMARKS
N.P. AIRPORT   SUNNY     50  35  56 W5        30.03F
N.P. DOWNTOWN    N/A     48  34  58 CALM        N/A
N.P. SOUTHEAST   N/A     50  33  51 CALM        N/A
N.P. HILLCREST   N/A     51  31  45 CALM        N/A
$$

...SOME OBSERVATIONS FROM AROUND THE REGION...

CITY           SKY/WX    TMP DP  RH WIND       PRES   REMARKS
DENVER         PTSUNNY   56  27  32 S12       30.01F
LIMON          SUNNY     49  36  61 S5        30.05F
ASPEN          CLOUDY    44  24  45 NW5       30.07F
LARAMIE        CLOUDY    50  19  29 SW16      30.02S
GILLETTE       MOSUNNY   56  31  38 N14       29.95S
CHEYENNE       CLOUDY    52  27  38 S10       30.02F
SCOTTSBLUFF    MOSUNNY   56  34  43 S8        29.97F
GRAND ISLAND   CLOUDY    36  36 100 N14       30.03S FOG     WCI  27
OMAHA          CLOUDY    43  37  79 N18       29.97F
SIOUX FALLS    CLOUDY    41  36  82 NE16      30.08F
PIERRE         CLOUDY    37  33  85 SE9       30.06F WCI  30
RAPID CITY     CLOUDY    56  33  42 SE13      29.91F
BISMARCK       CLOUDY    36  32  85 S18       30.05S WCI  26
KANSAS CITY    LGT RAIN  52  51  97 NE16      29.85R FOG
HILL CITY      CLOUDY    43  39  86 N12       30.04R
WICHITA        CLOUDY    44  40  85 N17       29.95R
DODGE CITY     CLOUDY    53  37  54 N18G25    30.02S
OKLAHOMA CITY  CLOUDY    51  42  71 NW16      30.01R
DALLAS         MOSUNNY   64  45  49 W13G20    30.02R
AMARILLO       SUNNY     59  27  29 NW13      30.09F
$$




USA.gov is the U.S. government's official web portal to all federal, state and local government web resources and services.